Date String (YYYY-MM-DD hh:mm:ss) UTC,Instrument flags,Ambient pressure (hPa),Sample flow (lpm),Bypass flow (lpm),Sample temperature (°C),Ambient temperature (°C),ASC tube jacket temperature (°C),LED temperature (°C),Box temperature (°C),Sample RH (%),Span deviation,Mass concentration (μg/m³),Mass concentration (μg/m³),Mass concentration (μg/m³)
DateTimeUTC,F1_M11,P_M11,Q1_M11,Q2_M11,T1_M11,T2_M11,T3_M11,T4_M11,T5_M11,U1_M11,ZSPAN_M11,X0_M11,X2_M11,X1_M11
2022-07-28 21:00:00,,0830.5,5.00,0.00,31.1,28.4,00.0,39.6,32.0,34.7,0000.4,0014.53,0009.05,0008.37
2022-07-28 21:01:00,,0830.4,5.01,0.00,31.0,28.5,00.0,39.6,32.0,34.1,-000.1,0014.49,0009.06,0008.42
2022-07-28 21:02:00,,0830.4,4.99,0.00,31.0,28.0,00.0,39.5,31.9,33.5,-000.4,0014.40,0009.04,0008.43
2022-07-28 21:03:00,,0830.3,5.01,0.00,30.9,27.4,00.0,39.4,31.7,33.5,-000.1,0014.39,0009.06,0008.45
2022-07-28 21:04:00,,0830.3,5.00,0.00,30.8,27.2,00.0,39.4,31.7,34.3,0000.0,0013.56,0009.09,0008.47
2022-07-28 21:05:00,,0830.4,5.01,0.00,30.7,27.2,00.0,39.3,31.6,34.7,-000.0,0013.09,0009.12,0008.49
2022-07-28 21:06:00,,0830.4,4.99,0.00,30.6,27.3,00.0,39.3,31.6,34.9,0000.1,0013.09,0009.16,0008.55
2022-07-28 21:07:00,,0830.4,5.02,0.00,30.6,27.5,00.0,39.3,31.6,35.1,-000.1,0013.09,0009.19,0008.58
2022-07-28 21:08:00,,0830.4,4.99,0.00,30.8,27.7,00.0,39.2,31.8,34.7,-000.4,0012.60,0009.25,0008.60
2022-07-28 21:09:00,,0830.4,5.00,0.00,30.9,27.8,00.0,39.2,31.8,34.7,-000.3,0012.54,0009.28,0008.60
2022-07-28 21:10:00,,0830.4,5.00,0.00,31.0,28.0,00.0,39.2,31.8,34.8,-000.5,0012.72,0009.25,0008.59
2022-07-28 21:11:00,,0830.5,5.00,0.00,31.0,28.1,00.0,39.2,31.8,34.7,-000.6,0012.99,0009.28,0008.60
2022-07-28 21:12:00,,0830.4,5.00,0.00,31.0,28.2,00.0,39.2,31.8,34.7,-000.5,0013.00,0009.31,0008.62
2022-07-28 21:13:00,,0830.4,5.00,0.00,30.9,28.3,00.0,39.2,31.9,34.7,-000.2,0013.28,0009.38,0008.67
2022-07-28 21:14:00,,0830.4,5.01,0.00,30.9,28.4,00.0,39.2,31.9,35.0,-000.5,0013.35,0009.46,0008.73
2022-07-28 21:15:00,,0830.4,5.00,0.00,31.0,28.5,00.0,39.3,32.0,35.1,-000.4,0013.34,0009.51,0008.75
2022-07-28 21:16:00,,0830.4,5.00,0.00,31.2,28.2,00.0,39.2,32.1,35.1,-000.2,0013.60,0009.51,0008.74
2022-07-28 21:17:00,,0830.5,4.99,0.00,31.5,27.4,00.0,39.2,32.1,34.9,-000.3,0013.77,0009.48,0008.68
2022-07-28 21:18:00,,0830.5,5.02,0.00,31.7,27.2,00.0,39.2,32.0,34.1,-000.4,0013.69,0009.42,0008.61
2022-07-28 21:19:00,,0830.6,4.99,0.00,31.8,27.1,00.0,39.2,31.9,34.0,-000.3,0013.60,0009.36,0008.59
2022-07-28 21:20:00,,0830.6,5.01,0.00,31.8,27.2,00.0,39.3,31.9,34.0,-000.4,0013.60,0009.31,0008.57
2022-07-28 21:21:00,,0830.6,4.99,0.00,31.7,27.4,00.0,39.3,31.8,33.7,0000.0,0013.22,0009.30,0008.57
2022-07-28 21:22:00,,0830.5,5.00,0.00,31.7,27.6,00.0,39.4,31.8,33.3,0000.1,0013.02,0009.28,0008.55
2022-07-28 21:23:00,,0830.5,5.00,0.00,31.6,27.7,00.0,39.4,31.8,33.8,0000.2,0013.10,0009.29,0008.54
2022-07-28 21:24:00,,0830.4,5.01,0.00,31.6,27.9,00.0,39.5,31.9,34.0,0000.1,0013.00,0009.30,0008.51
2022-07-28 21:25:00,,0830.4,4.99,0.00,31.5,28.0,00.0,39.5,31.9,33.8,0000.1,0013.62,0009.28,0008.49
2022-07-28 21:26:00,,0830.4,5.01,0.00,31.5,28.2,00.0,39.5,31.9,34.1,0000.4,0013.85,0009.28,0008.48
2022-07-28 21:27:00,,0830.4,5.00,0.00,31.4,28.3,00.0,39.5,31.9,34.3,0000.8,0014.65,0009.32,0008.49
2022-07-28 21:28:00,,0830.5,4.99,0.00,31.4,28.4,00.0,39.5,31.9,34.0,0001.1,0014.75,0009.40,0008.53
2022-07-28 21:29:00,,0830.4,5.01,0.00,31.3,28.4,00.0,39.6,31.9,34.4,0001.1,0014.97,0009.49,0008.59
2022-07-28 21:30:00,,0830.5,5.01,0.00,31.3,28.5,00.0,39.6,32.0,34.8,0001.1,0015.12,0009.56,0008.65
2022-07-28 21:31:00,,0830.5,4.99,0.00,31.2,28.6,00.0,39.6,32.0,34.7,0001.3,0015.81,0009.58,0008.68
2022-07-28 21:32:00,,0830.5,5.00,0.00,31.2,28.5,00.0,39.5,32.0,34.6,0001.2,0016.07,0009.60,0008.71
2022-07-28 21:33:00,,0830.6,5.01,0.00,31.1,28.0,00.0,39.5,31.9,34.6,0001.5,0016.10,0009.65,0008.73
2022-07-28 21:34:00,,0830.6,4.98,0.00,31.0,27.2,00.0,39.4,31.7,34.9,0001.9,0016.06,0009.63,0008.74
2022-07-28 21:35:00,,0830.5,5.02,0.00,31.0,27.0,00.0,39.4,31.6,35.3,0002.0,0016.21,0009.63,0008.76
2022-07-28 21:36:00,,0830.5,4.99,0.00,31.1,27.0,00.0,39.4,31.7,34.8,0002.2,0015.86,0009.61,0008.74
2022-07-28 21:37:00,,0830.4,4.99,0.00,31.1,27.2,00.0,39.3,31.7,34.7,0001.6,0015.92,0009.59,0008.73
2022-07-28 21:38:00,,0830.4,5.00,0.00,31.1,27.4,00.0,39.3,31.7,34.7,0001.2,0015.04,0009.55,0008.72
2022-07-28 21:39:00,,0830.4,5.00,0.00,31.1,27.5,00.0,39.3,31.7,34.8,0000.9,0014.81,0009.46,0008.69
2022-07-28 21:40:00,,0830.4,4.99,0.00,31.0,27.7,00.0,39.3,31.7,34.9,0000.8,0014.62,0009.41,0008.66
2022-07-28 21:41:00,,0830.3,4.99,0.00,31.1,27.9,00.0,39.3,31.7,35.1,0000.9,0014.71,0009.34,0008.63
2022-07-28 21:42:00,,0830.3,4.99,0.00,31.2,28.0,00.0,39.3,31.9,34.7,0001.1,0014.86,0009.34,0008.60
2022-07-28 21:43:00,,0830.3,5.01,0.00,31.3,28.1,00.0,39.3,31.9,34.5,0001.2,0014.93,0009.31,0008.56
2022-07-28 21:44:00,,0830.4,5.00,0.00,31.3,28.2,00.0,39.3,31.9,34.5,0001.1,0015.74,0009.26,0008.52
2022-07-28 21:45:00,,0830.4,5.00,0.00,31.3,28.3,00.0,39.4,31.9,34.5,0001.0,0015.72,0009.25,0008.46
2022-07-28 21:46:00,,0830.4,4.99,0.00,31.3,28.4,00.0,39.4,31.9,34.5,0000.7,0015.64,0009.20,0008.41
2022-07-28 21:47:00,,0830.4,5.01,0.00,31.3,28.4,00.0,39.4,31.9,34.5,0000.4,0015.24,0009.12,0008.39
2022-07-28 21:48:00,,0830.4,5.01,0.00,31.2,28.5,00.0,39.4,31.9,34.8,0000.0,0014.67,0009.05,0008.35
2022-07-28 21:49:00,,0830.4,5.00,0.00,31.2,28.5,00.0,39.5,31.9,34.7,0000.1,0014.60,0009.00,0008.32
2022-07-28 21:50:00,,0830.4,5.00,0.00,31.2,28.5,00.0,39.5,31.9,34.7,0000.4,0014.63,0009.01,0008.31
2022-07-28 21:51:00,,0830.4,5.00,0.00,31.1,28.0,00.0,39.4,31.8,34.8,0000.8,0014.63,0009.01,0008.30
2022-07-28 21:52:00,,0830.3,5.00,0.00,31.1,27.7,00.0,39.4,31.8,35.2,0001.1,0014.55,0009.04,0008.28
2022-07-28 21:53:00,,0830.4,5.01,0.00,31.3,27.6,00.0,39.4,31.8,35.2,0000.7,0013.75,0009.01,0008.24
2022-07-28 21:54:00,,0830.4,5.00,0.00,31.5,27.6,00.0,39.4,32.0,34.7,0000.8,0013.32,0008.95,0008.19
2022-07-28 21:55:00,,0830.4,4.99,0.00,31.6,27.7,00.0,39.4,32.0,34.5,0000.2,0012.50,0008.91,0008.15
2022-07-28 21:56:00,,0830.4,5.00,0.00,31.6,27.8,00.0,39.4,31.9,34.4,0000.9,0012.54,0008.90,0008.12
2022-07-28 21:57:00,,0830.4,5.00,0.00,31.6,28.0,00.0,39.4,31.9,34.3,0000.5,0012.40,0008.84,0008.08
2022-07-28 21:58:00,,0830.4,5.01,0.00,31.6,28.1,00.0,39.5,31.9,34.5,0000.0,0012.65,0008.79,0008.05
2022-07-28 21:59:00,,0830.4,5.00,0.00,31.5,28.2,00.0,39.5,31.9,34.5,0000.0,0012.63,0008.76,0008.03
